Regional & State Weather Roundups


309 
ASUS43 KFSD 200210
RWRFSD
WEATHER ROUNDUP FOR SE SOUTH DAKOTA/SW MINNESOTA/NW IOWA
NATIONAL WEATHER SERVICE SIOUX FALLS SD
900 PM CDT SUN AUG 19 2018
NOTE: "FAIR" INDICATES FEW OR NO CLOUDS BELOW 12,000 FEET WITH NO
SIGNIFICANT WEATHER AND OR OBSTRUCTIONS TO VISIBILITY.
SDZ038>040-050-052>070-200300-
SOUTHEAST SOUTH DAKOTA
  
CITY           SKY/WX    TMP DP  RH WIND       PRES   REMARKS
BROOKINGS      CLOUDY    64  62  93 N13G18    29.94F                  
CHAMBERLAIN    LGT RAIN  64  64 100 N10G21    30.01R                  
HURON          RAIN      63  61  93 N15       30.01R FOG              
MADISON        CLOUDY    64  64 100 NE16G22   29.95R                  
MITCHELL       LGT RAIN  66  64  93 N18G28    29.93R                  
SIOUX FALLS    RAIN      67  65  93 NE9       29.93R FOG              
WINNER         LGT RAIN  62  59  90 N16       30.03R FOG              
YANKTON        LGT RAIN  68  66  93 CALM      29.90R                  
$$
MNZ071-072-080-081-089-090-097-098-200300-
SOUTHWEST MINNESOTA
  
CITY           SKY/WX    TMP DP  RH WIND       PRES   REMARKS
FAIRMONT       CLOUDY    74  69  85 SE3       29.89S                  
JACKSON        CLOUDY    68  63  83 NW6       29.91S                  
LUVERNE        RAIN      64  63  94 N5        29.93R                  
MARSHALL       CLOUDY    67  65  93 NW9       29.92R                  
MONTEVIDEO     TSTM      66  64  94 NW10G18   29.94R                  
PIPESTONE      TSTM      66  64  94 CALM      29.94R                  
REDWOOD FALLS  CLOUDY    73  68  84 W6        29.88R                  
TRACY          CLOUDY    68  65  90 CALM      29.93R                  
WINDOM         CLOUDY    68  63  83 NW3       29.91S                  
WORTHINGTON    CLOUDY    66  64  93 NW3       29.93R                  
$$
IAZ001>003-012>014-020>022-031-032-NEZ013-014-SDZ071-200300-
NORTHWEST IOWA
  
CITY           SKY/WX    TMP DP  RH WIND       PRES   REMARKS
CHEROKEE       CLOUDY    67  67 100 N6        29.88S                  
DENISON        DRIZZLE   66  66 100 N8        29.86S                  
ESTHERVILLE    LGT RAIN  69  65  86 NW6       29.89S                  
ORANGE CITY    DRIZZLE   68  66  94 CALM      29.90S                  
SHELDON        CLOUDY    66  66 100 CALM      29.89S                  
SIOUX CITY     CLOUDY    67  66  97 N7        29.86F                  
SPENCER        CLOUDY    68  65  90 N7        29.89S                  
STORM LAKE     HVY RAIN  66  66 100 VRB6      29.89R                  
$$
 
ABBREVIATIONS USED IN REMARKS
   TC - TEMPERATURE IN CELSIUS
  WCI - WIND CHILL INDEX
   HX - HEAT INDEX
  VSB - VISIBILITY
  

311 
ASUS43 KFSD 200210
RWRSD 
WEATHER ROUNDUP FOR SOUTH DAKOTA
NATIONAL WEATHER SERVICE SIOUX FALLS SD
900 PM CDT SUN AUG 19 2018
NOTE: "FAIR" INDICATES FEW OR NO CLOUDS BELOW 12,000 FEET WITH NO
SIGNIFICANT WEATHER AND/OR OBSTRUCTIONS TO VISIBILITY.
SDZ001>005-009-010-012>017-200300-
NORTHWEST AND NORTH CENTRAL SOUTH DAKOTA
  
CITY           SKY/WX    TMP DP  RH WIND       PRES   REMARKS
BUFFALO          N/A     63  36  36 N8        30.17R                  
FAITH            N/A     58  47  66 N6        30.15R                  
MOBRIDGE       CLOUDY    63  49  60 N6        30.08R                  
$$
 
SDZ012>016-024>037-041>051-057-063-072>074-200300-
SOUTHWEST AND SOUTH CENTRAL SOUTH DAKOTA
  
CITY           SKY/WX    TMP DP  RH WIND       PRES   REMARKS
RAPID CTY ARPT PTCLDY    56  45  66 NW10      30.20R                  
PIERRE         CLOUDY    62  57  83 N12       30.05R                  
CUSTER         CLOUDY    51  32  48 N7        30.26S                  
ELLSWORTH AFB  PTCLDY    58  47  69 N9        30.20R                  
PHILIP         MOCLDY    62  48  60 N9        30.13R                  
PINE RIDGE     MOCLDY    60  50  69 N13       30.18R HAZE             
SPEARFISH      FAIR      55  50  82 CALM      30.25R                  
WINNER         LGT RAIN  62  59  90 N16       30.03R FOG              
$$
 
SDZ004>011-016>023-039-040-200300-
NORTHEAST SOUTH DAKOTA
  
CITY           SKY/WX    TMP DP  RH WIND       PRES   REMARKS
ABERDEEN       CLOUDY    61  56  83 N9        30.04R                  
WATERTOWN      RAIN      62  62 100 NE10      30.00R FOG              
BROOKINGS      CLOUDY    64  62  93 N13G18    29.94F                  
SISSETON         N/A     62  59  90 N13       30.00R                  
$$
 
SDZ017-020-022-023-036>040-048>070-200300-
SOUTHEAST SOUTH DAKOTA
  
CITY           SKY/WX    TMP DP  RH WIND       PRES   REMARKS
SIOUX FALLS    RAIN      67  65  93 NE9       29.93R FOG              
HURON          RAIN      63  61  93 N15       30.01R FOG              
CHAMBERLAIN    LGT RAIN  64  64 100 N10G21    30.01R                  
MITCHELL       LGT RAIN  66  64  93 N18G28    29.93R                  
YANKTON        LGT RAIN  68  66  93 CALM      29.90R                  
$$
 
ABBREVIATIONS USED IN REMARKS
   TC - TEMPERATURE IN CELSIUS
  WCI - WIND CHILL INDEX
   HX - HEAT INDEX
  VSB - VISIBILITY